Location: Ferintosh
(52.7647°N, 112.9692°W)
Time: 13:48:03
(UTC+00:00)

Transit 2A - Pass Details

Date: 21 May 2024
Orbit: 593 x 959 km, 66.7° (Epoch: 14 June)

Event Time Altitude Azimuth Distance (km) Brightness Sun altitude
Rises 05:21:20 0° 164° (SSE) 2,924 - -11.9°
Reaches altitude 10° 05:24:20 10° 142° (SE) 2,078 - -12.1°
Exits shadow 05:25:52 14° 123° (ESE) 1,832 7.4 -12.2°
Maximum altitude 05:27:07 16° 105° (ESE) 1,784 7.5 -12.3°
Drops below altitude 10° 05:30:02 10° 69° (ENE) 2,213 8.3 -12.5°
Sets 05:33:22 0° 49° (NE) 3,224 9.4 -12.8°
